SCP
0 0 0 0 0 0 0 0 0 0 0 0 0 0 1 1 1 1 1 1 1 1 1 1 1 1 1 1 1 1 1 0 0 0 0 0 0 0 0 0 0 0 0 0
0 0 0 0 0 0 0 0 0 0 0 0 0 0 0 1 1 1 1 1 1 1 1 1 1 1 1 1 1 1 0 0 0 0 0 0 0 0 0 0 0 0 0 0
0 0 0 0 0 0 0 0 0 0 0 0 0 0 0 0 0 0 0 0 1 1 1 1 1 0 0 0 0 0 0 0 0 0 0 0 0 0 0 0 0 0 0 0
0 0 0 0 0 0 0 0 0 0 0 0 0 0 0 0 0 0 0 0 0 0 0 0 0 0 0 0 0 0 0 0 0 0 0 0 0 0 0 0 0 0 0 0
0 0 0 0 0 0 0 0 0 0 0 0 0 0 0 0 0 0 0 0 0 0 0 0 0 0 0 0 0 0 1 1 0 0 0 0 0 0 0 0 0 0 0 0
0 0 0 0 0 0 0 0 0 0 0 0 0 0 0 0 0 0 0 0 0 0 0 0 0 0 0 0 0 1 1 1 1 0 0 0 0 0 0 0 0 0 0 0
0 0 0 0 0 0 0 0 0 0 0 0 0 0 0 0 0 0 0 0 0 0 0 0 0 0 0 0 0 1 1 1 1 0 0 0 0 0 0 0 0 0 0 0
0 0 0 0 0 0 0 0 0 0 0 0 0 0 0 0 0 0 0 0 0 0 0 0 0 0 0 0 0 0 1 1 1 0 0 0 0 0 0 0 0 0 0 0
0 0 0 0 0 0 0 0 0 0 0 0 0 0 0 0 0 0 0 0 0 0 0 0 0 0 0 0 0 0 1 1 0 0 0 0 0 0 0 0 0 0 0 0
0 0 0 0 0 0 0 0 0 0 0 0 0 0 0 0 0 0 0 0 0 0 0 0 0 0 0 0 0 0 0 0 0 0 0 0 0 0 0 0 0 0 0 0
0 0 0 0 0 0 0 0 0 0 0 0 0 0 0 0 0 0 0 0 0 0 0 0 0 0 0 0 0 0 0 0 0 0 0 0 0 0 0 0 0 0 0 0
0 0 0 0 0 0 0 0 0 0 0 0 0 0 0 0 0 0 0 0 0 0 0 0 0 0 0 0 0 0 0 0 0 0 0 0 0 0 0 0 0 0 0 0
0 0 0 0 0 0 0 0 0 0 0 0 0 0 0 0 0 0 0 0 0 0 0 0 0 0 0 0 0 0 0 0 0 0 0 0 0 0 0 0 0 0 0 0
0 0 0 0 0 0 0 0 0 0 0 0 0 0 0 0 0 0 0 0 0 0 0 0 0 0 0 0 0 0 0 0 0 0 0 0 0 0 0 0 0 0 0 0
0 0 0 0 0 0 0 0 0 0 0 0 0 0 0 0 0 0 0 0 0 0 0 0 0 0 0 0 0 0 0 0 0 0 0 0 0 0 0 0 0 0 0 0
0 0 0 0 0 0 0 0 0 0 0 0 0 0 0 0 0 0 0 0 0 0 0 0 1 1 0 0 0 0 0 0 0 0 0 0 0 0 0 0 0 0 0 0
0 0 0 0 0 0 0 0 0 0 0 0 0 0 0 0 0 0 0 0 0 0 0 0 1 1 1 0 0 0 0 0 0 0 0 0 0 0 0 0 0 0 0 0
0 0 0 0 0 0 0 0 0 0 0 0 0 0 0 0 0 0 0 0 0 0 0 0 1 1 1 0 0 0 0 0 0 0 0 0 0 0 0 0 0 0 0 0
0 0 0 0 0 0 0 0 0 0 0 0 0 0 0 0 0 0 0 0 0 0 0 0 0 0 0 0 0 0 0 0 0 0 0 0 0 0 0 0 0 0 0 0
0 0 0 0 0 0 0 0 0 0 0 0 0 0 0 0 0 0 0 0 0 0 0 0 0 0 1 1 0 0 0 0 0 0 0 0 0 0 0 0 0 1 0 0
0 0 0 0 0 0 0 0 0 0 0 0 0 0 0 0 0 0 0 0 0 0 0 0 1 1 1 1 1 0 0 0 0 0 0 0 0 0 0 0 1 1 0 0
0 0 0 0 0 0 0 0 0 0 0 0 0 0 0 0 0 0 0 0 0 0 0 0 1 1 1 1 1 1 1 0 0 0 0 0 0 0 0 0 1 1 0 0
0 0 0 0 0 0 0 0 0 0 0 0 0 0 0 0 0 0 0 1 1 1 0 1 1 1 1 1 1 1 1 1 0 0 0 0 0 0 0 1 1 0 0 0
0 0 0 0 0 0 0 0 0 0 0 0 0 0 0 0 0 1 1 1 1 1 1 1 1 1 1 1 1 1 1 1 1 1 1 1 0 1 1 1 0 0 0 0
0 0 0 0 1 0 0 0 0 0 0 0 0 0 0 0 0 1 1 1 1 1 1 1 1 1 1 1 1 1 1 1 1 1 1 0 0 0 1 1 0 0 0 0
0 0 0 1 1 1 0 0 0 0 0 0 0 0 0 0 0 1 1 1 1 1 1 1 1 1 1 1 1 1 1 1 1 1 1 0 0 0 0 0 0 0 0 0
Wind_Speed
12 10 10 10 8 8 8 8 6 4 5 4 2 3 5 5 5 8 9 9 9 8 8 8 9 10 9 7 6 6 5 3 2 2 1 1 1 0 1 2 3 2 1 1
12 12 13 11 10 9 7 5 6 4 7 5 2 2 2 3 4 6 8 10 10 10 9 8 8 8 8 7 6 6 5 3 2 2 1 1 1 1 1 2 3 2 1 1
12 9 7 8 9 9 8 5 5 6 4 1 1 1 2 5 4 5 7 9 10 11 11 9 9 8 8 7 6 5 5 4 2 2 0 1 1 1 1 1 1 2 1 1
10 11 8 8 8 8 8 4 6 6 5 3 4 2 3 7 6 6 6 7 8 9 10 9 9 8 8 7 7 7 5 3 2 1 2 2 2 2 2 2 2 1 1 1
10 12 10 9 7 7 7 5 6 8 7 4 4 1 5 8 8 9 9 9 10 10 10 9 9 7 7 7 7 7 6 4 2 1 2 2 3 3 3 3 3 2 2 3
12 13 10 8 7 6 6 4 5 7 6 3 6 3 4 6 8 11 10 10 10 11 10 9 9 8 7 7 7 7 7 4 2 1 1 2 3 4 4 4 4 3 2 2
10 12 10 8 8 5 5 5 2 1 2 6 7 2 5 6 7 10 12 12 12 11 10 10 10 8 7 7 6 7 7 5 3 1 0 1 2 3 4 3 3 4 3 3
6 6 8 7 8 7 7 7 5 5 3 3 4 4 6 7 8 9 11 11 11 11 10 10 10 9 8 7 6 6 6 5 3 1 1 1 1 2 2 4 4 4 4 4
6 6 8 7 8 7 7 7 8 6 6 4 2 7 9 8 9 10 11 11 11 11 11 10 9 8 7 7 6 6 7 5 3 1 1 2 1 1 2 3 3 3 4 5
8 8 5 5 7 7 8 8 6 5 4 2 4 2 6 10 10 10 11 11 11 10 10 10 9 8 7 6 6 6 5 4 2 1 1 1 1 1 1 2 3 3 4 4
8 8 6 4 5 6 7 6 5 5 5 1 0 1 6 8 8 9 11 12 11 10 10 9 9 8 7 7 8 6 5 5 3 2 1 1 1 1 1 2 3 3 3 4
6 7 6 3 6 9 9 7 5 4 5 4 1 2 5 7 8 8 9 11 11 10 10 10 10 9 7 6 6 6 5 4 3 2 2 2 1 2 2 3 3 3 4 4
4 4 6 3 7 9 9 9 6 4 4 5 1 3 5 6 7 7 7 9 9 9 9 10 9 8 7 6 5 4 4 3 2 1 1 1 1 1 2 3 3 3 4 5
5 6 6 5 5 7 11 13 10 6 5 5 2 3 5 5 6 7 8 9 10 10 9 9 8 7 6 5 5 4 3 3 2 1 1 1 1 2 3 3 3 4 4 5
5 7 7 7 9 12 13 13 11 9 8 7 3 3 5 6 6 7 9 9 10 11 10 10 9 7 6 6 5 4 4 3 2 1 2 2 2 2 3 3 4 4 5 6
3 7 9 9 9 10 12 12 11 10 10 8 5 3 4 6 5 6 8 9 9 10 11 11 10 9 7 6 6 5 3 3 3 3 3 2 2 3 3 4 4 4 4 5
5 6 9 10 10 10 10 9 9 9 8 7 4 1 5 6 5 5 6 7 7 9 10 10 10 9 7 6 5 5 4 4 3 3 4 3 3 3 3 5 4 4 5 5
5 7 7 9 9 10 6 5 4 4 3 2 1 4 4 4 5 5 6 7 6 7 8 9 9 9 8 7 6 5 5 4 4 4 4 3 3 4 3 4 4 4 4 5
5 7 8 8 9 9 6 4 4 4 1 2 2 3 5 4 3 4 6 7 6 5 6 7 8 9 8 8 7 6 5 5 5 5 4 3 3 3 4 4 4 4 4 5
5 6 8 9 10 8 2 3 4 3 1 5 5 5 4 1 1 3 7 8 7 7 7 7 8 9 9 7 7 6 6 5 5 4 3 3 3 4 4 5 5 5 4 6
7 9 10 10 10 3 2 2 4 3 2 5 5 4 2 1 2 6 7 8 8 8 8 7 7 7 7 7 6 6 6 5 4 3 2 3 4 4 5 5 4 5 6 6
9 8 7 7 8 1 4 2 3 2 2 3 4 3 2 2 4 6 6 8 8 8 9 9 7 6 6 7 6 6 6 4 3 3 4 4 4 6 6 4 4 5 6 7
5 3 1 1 1 2 2 2 3 2 3 3 3 4 2 1 2 4 6 7 7 8 7 7 8 7 6 6 6 7 5 4 4 4 4 5 5 5 5 6 6 6 6 6
2 4 2 1 2 2 2 2 1 2 4 5 5 5 4 3 2 4 5 5 5 6 6 6 7 7 7 6 6 5 5 5 5 5 5 5 6 7 7 5 5 6 5 5
3 3 2 1 1 2 5 5 6 7 7 7 7 8 7 5 4 4 4 4 4 4 4 4 4 5 6 6 5 5 5 4 5 5 5 6 7 8 6 6 6 6 6 6
2 2 1 2 2 3 4 5 5 5 6 7 8 7 7 6 6 5 5 3 3 3 3 2 2 3 3 4 4 4 3 4 5 5 6 6 6 6 5 5 6 9 10 11
Wind_Direction
239 241 264 279 284 292 306 329 333 337 317 297 94 121 161 155 146 126 125 130 125 117 111 114 116 116 117 118 116 112 109 107 96 86 81 87 105 216 144 123 116 114 67 28
251 243 256 282 295 298 301 299 303 271 244 244 127 98 113 123 127 128 137 137 131 130 128 131 134 134 132 129 125 130 129 128 123 98 78 103 50 292 144 95 119 118 83 355
264 264 263 278 285 293 293 299 294 285 259 242 104 99 129 122 135 143 141 143 145 147 148 152 147 142 142 144 150 135 128 133 113 93 349 32 33 298 30 55 108 86 36 330
272 276 280 287 287 295 298 316 302 296 285 253 223 200 177 154 166 162 159 155 156 150 151 153 153 152 156 158 147 130 133 128 114 100 29 351 348 2 8 4 38 27 335 300
277 277 275 276 289 296 303 334 337 352 337 324 289 269 155 165 181 176 174 168 159 155 156 159 157 159 161 156 145 140 134 128 120 63 43 358 360 357 1 3 2 347 299 269
280 283 280 280 275 269 292 316 352 25 6 300 251 229 157 177 185 172 171 168 162 162 160 158 160 159 163 159 149 144 138 139 136 124 33 25 4 351 338 330 323 323 313 307
258 275 281 275 273 264 273 284 304 351 239 249 233 217 139 167 172 164 165 166 165 163 164 164 163 163 163 164 151 142 139 141 149 159 77 9 353 319 297 306 335 341 331 345
261 271 258 253 263 270 261 259 264 279 255 209 196 136 132 145 140 146 151 157 161 168 169 167 170 168 170 162 148 141 139 146 155 165 128 22 326 306 348 21 357 332 329 344
259 237 235 239 256 268 275 274 279 280 306 310 139 127 135 139 147 151 155 161 167 168 168 172 173 168 158 151 150 145 140 139 141 142 124 226 213 318 355 346 313 322 348 328
261 274 245 228 249 248 270 289 292 297 307 339 6 128 148 163 170 167 166 167 165 167 170 169 161 149 143 142 136 130 131 132 134 162 250 304 50 299 315 307 321 317 312 313
257 270 273 254 269 286 273 273 297 308 315 359 127 3 148 173 170 176 175 170 168 172 169 159 147 141 145 148 144 143 146 151 167 189 188 290 278 308 313 287 289 303 311 309
270 275 283 318 330 317 286 274 281 294 316 319 89 117 139 165 166 178 173 167 166 170 166 156 147 146 153 152 148 151 158 167 175 178 185 218 250 295 304 309 321 316 304 297
305 290 284 325 357 336 305 287 273 278 281 294 356 168 164 158 156 161 158 154 155 162 160 148 142 148 154 154 150 154 164 166 175 169 222 230 261 299 297 298 298 296 293 291
265 265 274 263 210 234 265 272 270 260 267 283 338 169 194 165 162 162 154 153 162 161 154 146 141 149 152 151 153 165 167 165 170 168 246 264 278 282 282 284 287 287 287 287
261 267 269 250 219 213 239 252 253 248 255 267 266 234 205 172 179 162 158 164 167 162 161 155 152 154 155 160 162 173 169 160 165 204 242 254 262 265 270 277 282 282 283 289
264 283 291 281 263 256 257 254 254 257 261 265 255 239 136 138 149 156 161 169 171 168 168 163 163 163 167 172 174 169 170 169 177 215 241 243 258 272 272 276 274 278 284 289
261 265 275 282 293 286 270 268 259 253 256 266 270 158 130 147 138 147 159 172 175 173 169 166 166 163 164 171 166 168 177 176 193 219 240 244 252 267 276 290 299 297 295 292
250 263 268 273 282 272 276 294 293 280 271 263 146 123 128 125 136 157 168 168 173 172 168 160 161 159 162 164 162 173 182 187 203 217 232 243 253 267 276 282 286 288 287 287
257 251 261 268 269 271 282 320 331 304 297 30 77 95 104 106 144 165 152 148 154 158 147 148 158 159 158 163 165 175 194 203 213 223 226 240 254 270 278 282 285 286 284 285
259 248 251 257 266 275 295 318 326 303 136 43 71 75 76 111 255 111 127 142 147 142 142 151 158 155 155 161 163 180 203 213 223 232 235 245 253 263 271 274 276 280 279 279
233 237 244 258 265 272 74 65 342 282 90 34 44 55 50 59 67 120 140 141 142 142 146 150 154 152 156 158 164 192 212 219 224 233 239 247 250 254 257 257 258 265 272 277
231 236 242 259 268 292 24 53 51 30 344 8 28 23 27 82 124 142 138 140 148 153 160 161 153 151 154 161 174 201 214 215 218 230 242 249 251 262 272 265 262 261 266 273
254 265 239 177 175 113 1 30 70 304 323 346 356 359 6 111 152 140 136 144 152 159 162 163 161 161 164 172 185 207 209 207 219 233 243 252 258 258 262 262 264 265 263 268
331 319 289 155 164 140 104 63 50 28 7 7 6 4 9 20 77 99 112 133 147 159 165 170 171 177 177 182 193 209 209 205 218 236 246 251 253 255 255 250 259 266 272 278
280 259 265 53 142 149 65 37 32 29 20 14 20 25 21 22 48 84 101 116 137 149 155 171 176 183 182 181 193 207 213 209 226 243 253 260 260 260 255 253 250 258 259 260
338 3 336 98 70 56 51 21 18 32 27 23 27 31 36 39 44 61 79 86 100 118 124 145 179 190 189 183 194 203 209 217 231 246 255 265 270 270 269 271 270 253 247 244